N5MDT Weather Reports


time (UTC)temp
C
wind
direction
speed
KPH
gust
KPH
rain 1hr
cm
rain 24hr
cm
rain mn
cm
humidity
%
barometer
mb
20260505192830 28 240 4.8 8.0 0.00 0.00 0.00 73 1009.4
20260505191831 28 159 3.2 11.3 0.00 0.00 0.00 73 1009.4
20260505190830 28 239 0.0 12.9 0.00 0.00 0.00 74 1009.5
20260505185830 28 217 0.0 9.7 0.00 0.00 0.00 74 1009.5
20260505184830 28 296 1.6 8.0 0.00 0.00 0.00 76 1009.7
20260505183830 27 238 1.6 8.0 0.00 0.00 0.00 76 1009.8
20260505182830 27 108 1.6 6.4 0.00 0.00 0.00 76 1010.0
20260505181830 27 258 1.6 20.9 0.00 0.00 0.00 76 1009.8
20260505180830 27 181 3.2 11.3 0.00 0.00 0.00 77 1010.0
20260505175830 27 201 1.6 9.7 0.00 0.00 0.00 77 1010.1
20260505174830 27 144 1.6 14.5 0.00 0.00 0.00 77 1010.1
20260505173830 27 236 6.4 9.7 0.00 0.00 0.00 77 1010.1
20260505172839 27 163 1.6 9.7 0.00 0.00 0.00 79 1010.1
20260505171830 26 101 1.6 9.7 0.00 0.00 0.00 79 1010.0
20260505170830 26 202 3.2 9.7 0.00 0.00 0.00 80 1010.1
20260505165830 26 254 0.0 22.5 0.00 0.00 0.00 80 1010.2
20260505164830 26 228 3.2 11.3 0.00 0.00 0.00 80 1010.2
20260505163829 26 236 1.6 9.7 0.00 0.00 0.00 80 1010.1
20260505162829 26 123 3.2 9.7 0.00 0.00 0.00 81 1010.3
20260505161829 25 227 0.0 8.0 0.00 0.00 0.00 82 1010.3
20260505160829 25 263 0.0 6.4 0.00 0.00 0.00 82 1010.3
20260505152828 25 155 1.6 9.7 0.00 0.00 0.00 83 1010.1
20260505151828 24 162 3.2 9.7 0.00 0.00 0.00 83 1010.1
20260505150828 24 132 0.0 11.3 0.00 0.00 0.00 84 1010.2
20260505124827 22 196 0.0 6.4 0.00 0.00 0.00 86 1010.0
20260505123827 22 188 0.0 8.0 0.00 0.00 0.00 86 1009.5
20260505122827 22 204 0.0 12.9 0.00 0.00 0.00 86 1009.4
20260505121827 22 172 8.0 11.3 0.00 0.00 0.00 85 1009.4
20260505120827 22 96 3.2 6.4 0.00 0.00 0.00 85 1009.4
20260505115827 22 182 0.0 6.4 0.00 0.00 0.00 85 1009.4
20260505114827 22 180 0.0 6.4 0.00 0.00 0.00 85 1009.5
20260505113827 22 128 3.2 6.4 0.00 0.00 0.00 85 1009.2
20260505112826 22 140 0.0 8.0 0.00 0.00 0.00 85 1009.3
20260505111827 22 105 3.2 9.7 0.00 0.00 0.00 84 1009.3
20260505110826 22 158 0.0 8.0 0.00 0.00 0.00 84 1009.3
20260505101826 22 173 4.8 12.9 0.00 0.00 0.00 83 1009.4
20260505100826 22 106 4.8 8.0 0.00 0.00 0.00 83 1009.4
20260505095826 22 232 0.0 6.4 0.00 0.00 0.00 83 1009.7
20260505094826 22 219 0.0 6.4 0.00 0.00 0.00 83 1009.7
20260505093826 22 219 0.0 9.7 0.00 0.00 0.00 83 1009.5
20260505092825 22 132 3.2 11.3 0.00 0.00 0.00 83 1009.6
20260505091825 22 139 1.6 9.7 0.00 0.00 0.00 82 1009.7
20260505090825 22 122 4.8 8.0 0.00 0.00 0.00 82 1009.9
20260505085826 22 137 1.6 9.7 0.00 0.00 0.00 82 1009.9
20260505084825 22 159 3.2 8.0 0.00 0.00 0.00 82 1009.9
20260505083825 22 171 0.0 8.0 0.00 0.00 0.00 81 1010.1
20260505082825 22 196 0.0 6.4 0.00 0.00 0.00 81 1010.1
20260505081825 22 157 0.0 6.4 0.00 0.00 0.00 81 1010.3
20260505080825 22 194 0.0 8.0 0.00 0.00 0.00 81 1010.1
20260505075825 22 189 0.0 6.4 0.00 0.00 0.00 80 1010.3
20260505074825 22 118 0.0 11.3 0.00 0.00 0.00 80 1010.3
20260505073825 22 146 4.8 8.0 0.00 0.00 0.00 81 1010.3
20260505072824 22 86 0.0 8.0 0.00 0.00 0.00 80 1010.3
20260505071824 22 125 1.6 8.0 0.00 0.00 0.00 79 1010.4
20260505070824 22 206 0.0 6.4 0.00 0.00 0.00 79 1010.7
20260505065825 22 117 0.0 6.4 0.00 0.00 0.00 79 1010.7
20260505064825 22 117 3.2 8.0 0.00 0.00 0.00 78 1010.7
20260505063824 22 138 0.0 14.5 0.00 0.00 0.00 78 1010.8
20260505062824 22 178 1.6 9.7 0.00 0.00 0.00 78 1010.7
20260505061824 22 169 1.6 8.0 0.00 0.00 0.00 78 1010.8
20260505060824 22 186 0.0 9.7 0.00 0.00 0.00 78 1011.0
20260505055824 22 193 0.0 9.7 0.00 0.00 0.00 77 1011.1
20260505054824 22 144 6.4 12.9 0.00 0.00 0.00 77 1011.0
20260505053824 22 163 8.0 14.5 0.00 0.00 0.00 77 1011.0
20260505052824 22 130 1.6 16.1 0.00 0.00 0.00 77 1011.2
20260505051824 22 144 3.2 11.3 0.00 0.00 0.00 76 1011.1
20260505050823 23 179 3.2 11.3 0.00 0.00 0.00 76 1011.3
20260505040826 23 162 9.7 14.5 0.00 0.00 0.00 76 1011.1
20260505035827 23 186 4.8 12.9 0.00 0.00 0.00 75 1011.2
20260505034826 23 189 4.8 12.9 0.00 0.00 0.00 75 1011.4
20260505033826 23 204 6.4 14.5 0.00 0.00 0.00 75 1011.4
20260505032826 24 132 3.2 11.3 0.00 0.00 0.00 74 1011.3
20260505031826 24 159 0.0 14.5 0.00 0.00 0.00 74 1011.5
20260505030826 24 66 4.8 16.1 0.00 0.00 0.00 73 1011.4
20260505025826 24 208 4.8 16.1 0.00 0.00 0.00 73 1011.5
20260505024826 25 140 3.2 16.1 0.00 0.00 0.00 72 1011.4
20260505023826 25 151 9.7 19.3 0.00 0.00 0.00 72 1011.2
20260505022826 25 154 3.2 16.1 0.00 0.00 0.00 71 1011.4
20260505021826 25 137 6.4 12.9 0.00 0.00 0.00 71 1011.3
20260505020826 25 121 3.2 9.7 0.00 0.00 0.00 71 1011.5
20260505015825 25 161 0.0 4.8 0.00 0.00 0.00 70 1011.4
20260505014825 25 138 1.6 3.2 0.00 0.00 0.00 70 1011.3
20260505013825 25 200 0.0 3.2 0.00 0.00 0.00 69 1011.1
20260505012825 26 234 0.0 8.0 0.00 0.00 0.00 69 1010.9
20260505011825 26 132 1.6 8.0 0.00 0.00 0.00 68 1010.7
20260505010825 26 172 1.6 11.3 0.00 0.00 0.00 67 1010.7
20260505005825 26 159 3.2 14.5 0.00 0.00 0.00 67 1010.6
20260505004825 26 149 3.2 12.9 0.00 0.00 0.00 66 1010.9
20260505003825 26 207 0.0 11.3 0.00 0.00 0.00 66 1011.0
20260505002825 27 109 3.2 14.5 0.00 0.00 0.00 65 1010.9
20260505001825 27 188 3.2 16.1 0.00 0.00 0.00 64 1010.9
20260505000825 27 158 9.7 12.9 0.00 0.00 0.00 63 1010.9
20260504235825 27 119 12.9 14.5 0.00 0.00 0.00 62 1010.9
20260504234825 28 252 3.2 16.1 0.00 0.00 0.00 61 1010.9
20260504233825 28 184 1.6 9.7 0.00 0.00 0.00 60 1011.0
20260504232824 28 124 1.6 20.9 0.00 0.00 0.00 61 1011.0
20260504231824 28 136 4.8 16.1 0.00 0.00 0.00 59 1011.1
20260504230824 29 123 6.4 12.9 0.00 0.00 0.00 58 1011.3
20260504225824 29 94 1.6 12.9 0.00 0.00 0.00 59 1011.4
20260504224824 29 189 1.6 8.0 0.00 0.00 0.00 59 1011.5
20260504223824 29 146 0.0 12.9 0.00 0.00 0.00 58 1011.5
20260504222824 29 98 0.0 9.7 0.00 0.00 0.00 58 1011.9
20260504221824 30 277 0.0 14.5 0.00 0.00 0.00 56 1011.8
20260504220824 30 244 0.0 14.5 0.00 0.00 0.00 55 1012.0
20260504215824 30 80 12.9 14.5 0.00 0.00 0.00 56 1012.0
20260504214824 30 158 8.0 14.5 0.00 0.00 0.00 54 1012.1
20260504213823 31 57 3.2 16.1 0.00 0.00 0.00 54 1012.2
20260504212823 31 135 11.3 19.3 0.00 0.00 0.00 54 1012.3
20260504211823 31 163 8.0 14.5 0.00 0.00 0.00 54 1012.5
20260504210824 31 199 1.6 12.9 0.00 0.00 0.00 55 1012.5
20260504205823 31 128 12.9 16.1 0.00 0.00 0.00 55 1012.7
20260504204824 30 111 1.6 14.5 0.00 0.00 0.00 56 1012.6
20260504203823 30 140 4.8 14.5 0.00 0.00 0.00 58 1013.0
20260504202823 29 194 1.6 9.7 0.00 0.00 0.00 58 1013.2
20260504201823 29 195 1.6 14.5 0.00 0.00 0.00 58 1013.4
20260504200823 29 188 3.2 8.0 0.00 0.00 0.00 56 1013.7
20260504195823 29 125 3.2 12.9 0.00 0.00 0.00 59 1013.7
20260504194823 28 267 0.0 11.3 0.00 0.00 0.00 59 1013.9
20260504193853 28 134 1.6 12.9 0.00 0.00 0.00 60 1014.0